CW3468 Weather Reports


time (UTC)temp
C
wind
direction
speed
KPH
gust
KPH
rain 1hr
cm
rain 24hr
cm
rain mn
cm
humidity
%
barometer
mb
20260509034637 22 170 0.0 0.0 0.00 0.00 0.00 87 1011.9
20260509033613 22 167 0.0 3.2 0.00 0.00 0.00 87 1011.9
20260509032629 22 157 0.0 3.2 0.00 0.00 0.00 86 1011.9
20260509031647 23 135 0.0 3.2 0.00 0.00 0.00 85 1011.7
20260509030623 23 135 0.0 6.4 0.00 0.00 0.00 85 1011.4
20260509025639 23 168 0.0 4.8 0.00 0.00 0.00 86 1011.3
20260509024615 23 145 1.6 3.2 0.00 0.00 0.00 85 1011.3
20260509023611 23 157 0.0 0.0 0.00 0.00 0.00 85 1011.3
20260509022628 23 159 0.0 0.0 0.00 0.00 0.00 84 1011.3
20260509021625 23 158 0.0 3.2 0.00 0.00 0.00 84 1011.1
20260509020621 23 159 1.6 4.8 0.00 0.00 0.00 82 1010.8
20260509015616 23 117 1.6 6.4 0.00 0.00 0.00 83 1010.6
20260509014613 24 171 0.0 3.2 0.00 0.00 0.00 81 1010.5
20260509013611 25 138 1.6 6.4 0.00 0.00 0.00 81 1010.4
20260509012628 24 134 1.6 4.8 0.00 0.00 0.00 80 1010.6
20260509011625 25 175 1.6 6.4 0.00 0.00 0.00 79 1010.5
20260509010620 25 144 1.6 6.4 0.00 0.00 0.00 79 1010.4
20260509005616 25 192 3.2 8.0 0.00 0.00 0.00 79 1010.4
20260509004632 25 169 1.6 6.4 0.00 0.00 0.00 79 1010.3
20260509003628 25 202 0.0 4.8 0.00 0.00 0.00 78 1010.2
20260509002625 25 134 1.6 6.4 0.00 0.00 0.00 77 1010.3
20260509001628 25 116 1.6 8.0 0.00 0.00 0.00 76 1010.3
20260509000625 26 161 3.2 6.4 0.00 0.00 0.00 75 1010.4
20260508235623 26 182 1.6 4.8 0.00 0.00 0.00 76 1010.3
20260508234637 26 178 1.6 6.4 0.00 0.00 0.00 75 1010.3
20260508233631 26 165 1.6 4.8 0.00 0.00 0.00 74 1010.3
20260508232626 26 152 1.6 8.0 0.00 0.00 0.00 74 1010.1
20260508231623 26 148 3.2 9.7 0.00 0.00 0.00 75 1010.2
20260508230620 26 146 1.6 4.8 0.00 0.00 0.00 74 1010.4
20260508225617 26 145 1.6 6.4 0.00 0.00 0.00 74 1010.4
20260508224613 26 194 3.2 11.3 0.00 0.00 0.00 74 1010.3
20260508223612 26 173 1.6 8.0 0.00 0.00 0.00 74 1010.3
20260508222650 26 194 1.6 8.0 0.00 0.00 0.00 74 1010.3
20260508221645 26 158 0.0 4.8 0.00 0.00 0.00 72 1010.4
20260508220623 26 92 4.8 14.5 0.00 0.00 0.00 71 1010.4
20260508215620 27 103 3.2 11.3 0.00 0.00 0.00 71 1010.4
20260508214619 26 127 1.6 6.4 0.00 0.00 0.00 72 1010.5
20260508213616 27 188 1.6 11.3 0.00 0.00 0.00 71 1010.6
20260508212611 26 110 0.0 6.4 0.00 0.00 0.00 71 1010.7
20260508211627 27 109 1.6 6.4 0.00 0.00 0.00 72 1010.8
20260508210624 26 162 0.0 8.0 0.00 0.00 0.00 72 1011.0
20260508205624 25 80 1.6 9.7 0.00 0.00 0.00 75 1011.2
20260508204621 26 209 3.2 9.7 0.00 0.00 0.00 73 1011.3
20260508203638 26 110 1.6 8.0 0.00 0.00 0.00 72 1011.3
20260508202613 26 125 1.6 9.7 0.00 0.00 0.00 72 1011.6
20260508201611 26 111 4.8 14.5 0.00 0.00 0.00 72 1011.5
20260508200628 26 90 1.6 14.5 0.00 0.00 0.00 73 1011.7
20260508195627 27 122 3.2 16.1 0.00 0.00 0.00 69 1011.7
20260508194623 26 101 1.6 11.3 0.00 0.00 0.00 72 1011.6
20260508193622 27 132 1.6 12.9 0.00 0.00 0.00 69 1011.9
20260508192617 26 139 0.0 11.3 0.00 0.00 0.00 71 1012.0
20260508191613 26 118 4.8 14.5 0.00 0.00 0.00 71 1012.2
20260508190630 25 91 1.6 6.4 0.00 0.00 0.00 74 1012.3
20260508185628 25 123 1.6 9.7 0.00 0.00 0.00 74 1012.4
20260508184623 25 91 3.2 9.7 0.00 0.00 0.00 73 1012.5
20260508183640 25 75 1.6 9.7 0.00 0.00 0.00 72 1012.6
20260508182616 25 61 3.2 9.7 0.00 0.00 0.00 72 1012.9
20260508181611 25 94 1.6 8.0 0.00 0.00 0.00 71 1013.0
20260508180612 25 117 4.8 12.9 0.00 0.00 0.00 70 1013.1
20260508175625 26 122 3.2 9.7 0.00 0.00 0.00 69 1013.3
20260508174642 25 108 4.8 11.3 0.00 0.00 0.00 71 1013.3
20260508173617 25 86 3.2 14.5 0.00 0.00 0.00 72 1013.4
20260508172617 25 88 4.8 11.3 0.00 0.00 0.00 72 1013.3
20260508171612 25 125 1.6 3.2 0.00 0.00 0.00 72 1013.5
20260508170628 25 80 0.0 3.2 0.00 0.00 0.00 70 1013.6
20260508165623 25 5 1.6 3.2 0.00 0.00 0.00 70 1013.4
20260508164616 24 51 0.0 3.2 0.00 0.00 0.00 71 1013.5
20260508163613 25 87 1.6 6.4 0.00 0.00 0.00 69 1013.7
20260508162630 24 130 0.0 3.2 0.00 0.00 0.00 71 1013.9
20260508161629 23 132 0.0 3.2 0.00 0.00 0.00 72 1014.0
20260508160622 22 126 0.0 3.2 0.00 0.00 0.00 74 1014.3
20260508155740 21 82 0.0 0.0 0.00 0.00 0.00 78 1014.5
20260508154643 21 322 0.0 1.6 0.00 0.00 0.00 75 1014.5
20260508153619 21 119 0.0 1.6 0.00 0.00 0.00 75 1014.7
20260508152615 21 125 0.0 4.8 0.00 0.00 0.00 72 1014.8
20260508151612 20 78 0.0 0.0 0.00 0.00 0.00 75 1014.8
20260508150630 19 210 0.0 0.0 0.00 0.00 0.00 77 1015.0
20260508145627 18 197 0.0 3.2 0.00 0.00 0.00 78 1015.2
20260508144624 18 140 1.6 4.8 0.00 0.00 0.00 78 1015.1
20260508143619 18 105 1.6 3.2 0.00 0.00 0.00 79 1015.0
20260508142637 17 163 0.0 3.2 0.00 0.00 0.00 80 1015.2
20260508141612 17 123 1.6 4.8 0.00 0.00 0.00 80 1015.1
20260508140630 17 91 0.0 3.2 0.00 0.00 0.00 81 1015.2
20260508135627 17 74 1.6 4.8 0.00 0.00 0.00 81 1015.0
20260508134627 17 46 0.0 0.0 0.00 0.00 0.00 82 1015.1
20260508133624 16 59 0.0 3.2 0.00 0.00 0.00 82 1015.1
20260508132621 16 105 0.0 3.2 0.00 0.00 0.00 82 1015.2
20260508131614 16 63 1.6 3.2 0.00 0.00 0.00 83 1015.2
20260508130611 16 339 0.0 3.2 0.00 0.00 0.00 83 1015.3
20260508125628 16 338 1.6 4.8 0.00 0.00 0.00 83 1015.1
20260508124645 16 345 0.0 4.8 0.00 0.00 0.00 84 1015.4
20260508123642 16 17 0.0 3.2 0.00 0.00 0.00 84 1015.3
20260508122615 16 19 0.0 4.8 0.00 0.00 0.00 84 1015.3
20260508121633 16 355 1.6 6.4 0.00 0.00 0.00 84 1015.1
20260508120628 16 325 1.6 3.2 0.00 0.00 0.00 84 1015.4
20260508115624 16 13 1.6 3.2 0.00 0.00 0.00 84 1015.4
20260508114620 16 345 0.0 0.0 0.00 0.00 0.00 83 1015.8
20260508113616 16 15 0.0 0.0 0.00 0.00 0.00 81 1015.7
20260508112613 16 12 0.0 0.0 0.00 0.00 0.00 81 1015.8
20260508111631 16 5 0.0 0.0 0.00 0.00 0.00 81 1016.0
20260508110629 16 19 0.0 4.8 0.00 0.00 0.00 81 1015.8
20260508105626 16 27 0.0 6.4 0.00 0.00 0.00 81 1015.7
20260508104622 16 24 1.6 6.4 0.00 0.00 0.00 81 1015.6
20260508103641 16 336 3.2 9.7 0.00 0.00 0.00 81 1015.6
20260508102616 16 355 1.6 6.4 0.00 0.00 0.00 81 1015.7
20260508101617 16 26 0.0 6.4 0.00 0.00 0.00 82 1015.5
20260508100615 16 310 1.6 3.2 0.00 0.00 0.00 82 1015.3
20260508095611 16 24 0.0 3.2 0.00 0.00 0.00 83 1015.5
20260508094646 16 326 0.0 3.2 0.00 0.00 0.00 83 1015.5
20260508093641 16 321 0.0 4.8 0.00 0.00 0.00 83 1015.5
20260508092617 16 321 0.0 0.0 0.00 0.00 0.00 83 1015.8
20260508091614 16 350 0.0 0.0 0.00 0.00 0.00 83 1015.8
20260508090631 16 34 0.0 0.0 0.00 0.00 0.00 83 1015.7
20260508085628 16 34 0.0 0.0 0.00 0.00 0.00 83 1015.3
20260508084624 16 34 0.0 0.0 0.00 0.00 0.00 80 1015.4
20260508083621 16 34 0.0 0.0 0.00 0.00 0.00 78 1015.6
20260508082617 16 12 0.0 1.6 0.00 0.00 0.00 79 1015.6
20260508081613 16 21 0.0 0.0 0.00 0.00 0.00 78 1015.8
20260508080629 16 59 0.0 0.0 0.00 0.00 0.00 78 1015.6
20260508075626 16 61 0.0 0.0 0.00 0.00 0.00 77 1015.8
20260508074622 16 60 0.0 3.2 0.00 0.00 0.00 78 1015.6
20260508073620 16 39 0.0 3.2 0.00 0.00 0.00 78 1015.8
20260508072637 16 70 0.0 4.8 0.00 0.00 0.00 78 1015.9
20260508071613 16 11 0.0 6.4 0.00 0.00 0.00 78 1015.6
20260508070614 16 29 0.0 3.2 0.00 0.00 0.00 78 1015.6
20260508065612 16 26 0.0 4.8 0.00 0.00 0.00 78 1015.7
20260508064628 16 342 1.6 4.8 0.00 0.00 0.00 78 1015.9
20260508063625 16 47 0.0 1.6 0.00 0.00 0.00 79 1016.3
20260508062622 16 38 0.0 3.2 0.00 0.00 0.00 78 1016.5
20260508061620 16 55 0.0 1.6 0.00 0.00 0.00 78 1016.6
20260508060617 16 32 0.0 0.0 0.00 0.00 0.00 78 1016.6
20260508055614 16 34 0.0 3.2 0.00 0.00 0.00 78 1016.4
20260508054611 16 39 0.0 0.0 0.00 0.00 0.00 78 1016.3
20260508053650 16 355 0.0 3.2 0.00 0.00 0.00 78 1016.7
20260508052623 16 290 0.0 3.2 0.00 0.00 0.00 78 1016.7
20260508051621 16 351 0.0 3.2 0.00 0.00 0.00 79 1016.5
20260508050617 16 11 0.0 4.8 0.00 0.00 0.00 79 1016.5
20260508045634 16 47 0.0 6.4 0.00 0.00 0.00 78 1016.4
20260508044610 16 316 3.2 11.3 0.00 0.00 0.00 79 1016.9
20260508043626 16 295 0.0 3.2 0.00 0.00 0.00 79 1016.7
20260508042622 16 67 0.0 1.6 0.00 0.00 0.00 79 1015.9
20260508041620 16 46 0.0 3.2 0.00 0.00 0.00 79 1016.4
20260508040637 16 30 0.0 3.2 0.00 0.00 0.00 78 1016.4
20260508035612 16 38 0.0 0.0 0.00 0.00 0.00 77 1016.9